Flag for Germany Weather past 2 weeks in Lörrach, Baden-Württemberg, Germany

Now
43 °F

Passing clouds.


Feels Like: 39 °F
Forecast: 34 / 46 °F
Wind: 6 mph from West

Location: Bale-Mulhouse

Current Time: Dec 21, 2014 at 11:41:16 PM

Latest Report: Dec 21, 2014 at 11:00 PM


Visibility: N/A

Pressure: 30.51 "Hg

Humidity: 71%

Dew point: 34 °F

Location of LörrachLocation

Historic Weather in Lörrach — Graph

°F

Lörrach temperature yesterday

Maximum temperature yesterday: 50 °F (at 12:00 AM)
Minimum temperature yesterday: 41 °F (at 8:00 AM)
Average temperature yesterday: 45 °F

Past Weeks' High & Low Weather Summary

 TemperatureHumidityPressure
High55 °F (Dec 18, 4:00 PM)100% (Dec 7, 6:30 AM)30.57 "Hg (Dec 7, 6:30 AM)
Low28 °F (Dec 10, 2:00 AM)58% (Dec 12, 11:30 AM)29.80 "Hg (Dec 12, 6:00 PM)
Average43 °F86%30.14 "Hg
* Reported Dec 6 10:00 PM — Dec 21 10:30 PM, Lörrach, Weather by CustomWeather, © 2014

Note: Actual official high and low records may vary slightly from our data, if they occured in-between our weather recording intervals... More about our weather records

Advertising

Lörrach weather history for previous 24 hours

 ConditionsComfort  
Time TempWeatherWind HumidityBarometerVisibility
10:30 PM
Dec 21
41 °FPassing clouds.7 mph81%30.54 "HgN/A
10:00 PM41 °FPassing clouds.6 mph76%30.54 "HgN/A
9:30 PM41 °FPassing clouds.3 mph76%30.54 "HgN/A
9:00 PM43 °FPassing clouds.2 mph71%30.54 "HgN/A
8:30 PM43 °FPassing clouds.6 mph71%30.54 "HgN/A
8:00 PM43 °FPassing clouds.No wind71%30.54 "HgN/A
7:30 PM43 °FPassing clouds.3 mph76%30.54 "HgN/A
7:00 PM43 °FPassing clouds.3 mph76%30.54 "HgN/A
6:30 PM43 °FPassing clouds.3 mph81%30.54 "HgN/A
6:00 PM43 °FPassing clouds.2 mph81%30.54 "HgN/A
5:30 PM43 °FPassing clouds.2 mph81%30.54 "HgN/A
5:00 PM43 °FPassing clouds.2 mph87%30.54 "HgN/A
4:30 PM45 °FPartly sunny.No wind76%30.51 "HgN/A
4:00 PM45 °FPartly sunny.1 mph76%30.54 "HgN/A
3:30 PM45 °FPartly sunny.2 mph76%30.54 "HgN/A
3:00 PM45 °FPartly sunny.7 mph76%30.54 "HgN/A
2:30 PM45 °FPartly sunny.7 mph76%30.54 "HgN/A
2:00 PM45 °FPartly sunny.6 mph76%30.54 "HgN/A
1:30 PM45 °FPartly sunny.7 mph76%30.54 "HgN/A
1:00 PM46 °FBroken clouds.7 mph71%30.54 "HgN/A
12:30 PM45 °FPartly sunny.9 mph76%30.57 "HgN/A
12:00 PM43 °FBroken clouds.8 mph81%30.57 "HgN/A
11:30 AM43 °FPartly sunny.8 mph81%30.57 "HgN/A
11:00 AM43 °FBroken clouds.9 mph81%30.57 "HgN/A
10:30 AM45 °FPartly sunny.3 mph76%30.57 "HgN/A
10:00 AM43 °FPartly sunny.3 mph81%30.57 "HgN/A
9:30 AM43 °FPartly sunny.1 mph81%30.54 "HgN/A
9:00 AM39 °FScattered clouds.3 mph93%30.54 "HgN/A
8:30 AM39 °FScattered clouds.7 mph87%30.54 "HgN/A
8:00 AM41 °FPassing clouds.5 mph87%30.54 "HgN/A
7:30 AM41 °FPartly cloudy.7 mph87%30.54 "HgN/A
7:00 AM41 °FPartly cloudy.8 mph87%30.54 "HgN/A
6:30 AM41 °FLight rain. Partly cloudy.7 mph87%30.54 "HgN/A
6:00 AM41 °FLight rain. Partly cloudy.8 mph87%30.54 "HgN/A
5:30 AM39 °FPartly cloudy.5 mph87%30.57 "HgN/A
5:00 AM39 °FPartly cloudy.3 mph87%30.54 "HgN/A
4:30 AM39 °FPartly cloudy.5 mph87%30.54 "HgN/A
4:00 AM39 °FPartly cloudy.5 mph87%30.54 "HgN/A
3:30 AM39 °FPassing clouds.5 mph87%30.54 "HgN/A
3:00 AM41 °FClear.6 mph81%30.54 "HgN/A
2:30 AM41 °FClear.9 mph81%30.51 "HgN/A
2:00 AM41 °FClear.13 mph87%30.51 "HgN/A
1:30 AM41 °FMostly cloudy.13 mph81%30.51 "HgN/A
1:00 AM41 °FClear.14 mph87%30.51 "HgN/A
12:30 AM41 °FPassing clouds.14 mph81%30.48 "HgN/A
12:00 AM41 °FPartly cloudy.10 mph81%30.51 "HgN/A
11:30 PM
Dec 20
41 °FPartly cloudy.9 mph81%30.51 "HgN/A
Weather by CustomWeather, © 2014

See weather overviewHow to use our weather pages